User: anonymous   Login
Location: Unspecified
(0.0000°N, 0.0000°E)
Time: 01:09:13
(UTC+00:00)
Language:

STARLINK-11579 [DTC] - Orbit

View from above orbital plane
View from above orbital plane
View from above satellite
View from above satellite

Ground track
Ground track

The orbit is defined by the following mean orbital elements,

1 63143U          26145.35650414 +.00000000 +00000-0 +16739-2 0 00004
2 63143  43.0036 148.2472 0002147 253.9539 106.1093 15.70886830    09
Epoch (UTC): 25 May 2026 08:33:21
Eccentricity: 0.0002147
inclination: 43.0036°
perigee height: 355 km
apogee height: 358 km
right ascension of ascending node: 148.2472°
argument of perigee: 253.9539°
revolutions per day: 15.70886830
mean anomaly at epoch: 106.1093°

The dashed part of the orbit path shows where the satellite is in the earth's shadow,  

DLR